"Pseudo-MPEC" for C0QYGK2

Created 2019 Jun 15 19:07:31 UT using Find_Orb

Click here for an explanation of pseudo-MPECs

 
 Astrometry: 
     C0QYGK2  C2019 03 17.45580 16 01 14.30 -11 19 20.3    ~66Ib 20.9 GVNEOCPG96
     C0QYGK2  C2019 03 17.46090 16 01 14.43 -11 19 19.6    ~66Ib 22.0 GVNEOCPG96
     C0QYGK2  C2019 03 17.46599 16 01 14.57 -11 19 18.3    ~66Ib 21.1 GVNEOCPG96
     C0QYGK2  C2019 03 17.47107 16 01 14.74 -11 19 18.4    ~66Ib 22.1 GVNEOCPG96
     C0QYGK2  C2019 04 02iMoxN$]]U?:?KFDG_$W^*h^nyMeiT(8,Vp-9LDnl8g=8f?KvP0rHF51
     C0QYGK2  C2019 04 02Nru9;*A-jQAstrometry$wDPulB349L1k%aAig:7ofg/[q*h;6FmF51
     C0QYGK2  C2019 04 02Zwh's;gNoRsN:n[bUQNv:cGxRc4RVI)DP#FEDNnPGBD`$p1-l%p:F51
     C0QYGK2  C2019 04 02##8U3a^Wk;X69,*jTL4Jgn(]Yi)^`wbTKg;0y,%Wv?ccq,QuM$dYF51
     C0QYGK2  C2019 04 25.45780 15 59 31.85 -08 51 22.6    ~66Ib 20.1 GVNEOCPG96
     C0QYGK2  C2019 04 25.46163 15 59 31.69 -08 51 22.0    ~66Ib 20.0 GVNEOCPG96
     C0QYGK2  C2019 04 25.46547 15 59 31.53 -08 51 20.3    ~66Ib 20.4 GVNEOCPG96
     C0QYGK2  C2019 04 25.46931 15 59 31.35 -08 51 19.7    ~66Ib 20.2 GVNEOCPG96
     C0QYGK2  C2019 05 02.38240 15 54 31.83 -08 18 59.8    ~66Ib 20.2 GVNEOCPG96
     C0QYGK2  C2019 05 02.38751 15 54 31.56 -08 18 58.2    ~66Ib 20.0 GVNEOCPG96
     C0QYGK2  C2019 05 02.39266 15 54 31.33 -08 18 57.2    ~66Ib 19.4 GVNEOCPG96
     C0QYGK2  C2019 05 02.39781 15 54 31.04 -08 18 56.1    ~66Ib 19.5 GVNEOCPG96
     C0QYGK2  C2019 05 11mn-E$ZOgO_f5?w1^ak!2QR.%R2i2Y7*g]0k]D@$sZE.SBsk]dlp;F51
     C0QYGK2  C2019 05 11x$@+jdqIU!j8e5O/0.\D-DwO=hg'Z]v2;q=+54.jiy)Th2=xtSB'F51
     C0QYGK2  C2019 05 11w?1n-xuA5L.PCK5X:redacted;w)P_8?r/=lc:N:Y_/A]^r0J-P7F51
     C0QYGK2  C2019 05 11?jhBM?'?^yOUFlot,)Y;$p@hdEjrO[7?#3FB;@ZnI6:;_h!B!qFqF51
     C0QYGK2  C2019 05 28.30234 15 28 51.38 -06 49 53.1    ~66IM 19.6 GVNEOCPG96
     C0QYGK2  C2019 05 28.30780 15 28 51.02 -06 49 52.9    ~66IM 19.5 GVNEOCPG96
     C0QYGK2  C2019 05 28.31325 15 28 50.67 -06 49 52.2    ~66IM 19.5 GVNEOCPG96
     C0QYGK2  C2019 05 28.31870 15 28 50.34 -06 49 52.0    ~66IM 19.6 GVNEOCPG96
     C0QYGK2  C2019 05 29.34618 15 27 47.30 -06 48 15.6    ~66IM 19.8 GVNEOCP703
     C0QYGK2  C2019 05 29.35669 15 27 46.75 -06 48 14.4    ~66IM 19.5 GVNEOCP703
     C0QYGK2  C2019 05 29.36194 15 27 46.36 -06 48 13.4    ~66IM 19.8 GVNEOCP703
     C0QYGK2  C2019 05 30qA95f)a;S4Bf4'TyvWijL(3NK4Eq,p8E+X)mM!F;wfPn^oD84h@GF52
     C0QYGK2  C2019 05 30pk6;=v1/Aqh$o1W*;sRyhvoZe8!f.F$cRist`;R$02Buj'6cY6,0F52
     C0QYGK2  C2019 05 30_fuwA;`hr+J-XxnMQL^co3-PJK/:W?ywnQs0k;(/F,Y+d,\7Dy`XF52
     C0QYGK2  C2019 05 30-6(Xyvi?u@g9wq.YZ/fwhq;clickt-Rs`herel+m(g%(cn!^ih?\F52
     C0QYGK2  C2019 06 06.27687 15 20 11.30 -06 42 36.4    ~667M 19.6 GVNEOCPG96
     C0QYGK2  C2019 06 06.28202 15 20 11.01 -06 42 36.6    ~667M 19.9 GVNEOCPG96
     C0QYGK2  C2019 06 06.28718 15 20 10.74 -06 42 36.5    ~667M 19.8 GVNEOCPG96
     C0QYGK2  C2019 06 06.29233 15 20 10.43 -06 42 36.5    ~667M 19.9 GVNEOCPG96
     C0QYGK2  C2019 06 06.35623 15 20 06.88 -06 42 37.0    ~6697 19.5 GVNEOCPI52
     C0QYGK2  C2019 06 06.36086 15 20 06.65 -06 42 37.0    ~6697 19.2 GVNEOCPI52
     C0QYGK2  C2019 06 06.36549 15 20 06.40 -06 42 37.0    ~6697 19.2 GVNEOCPI52
     C0QYGK2  C2019 06 06.37034 15 20 06.13 -06 42 36.9    ~6697 19.4 GVNEOCPI52
     C0QYGK2  C2019 06 07.26243 15 19 19.43 -06 42 46.8    ~676q 19.6 GVNEOCPI52
     C0QYGK2  C2019 06 07.26689 15 19 19.19 -06 42 47.1    ~676q 19.9 GVNEOCPI52
     C0QYGK2  C2019 06 07.27135 15 19 18.97 -06 42 46.8    ~676q 19.1 GVNEOCPI52
     C0QYGK2  C2019 06 07.27581 15 19 18.70 -06 42 47.1    ~676q 19.7 GVNEOCPI52
     C0QYGK2  C2019 06 08.29041 15 18 26.60 -06 43 10.1    ~691b 19.8 GVNEOCPI52
     C0QYGK2  C2019 06 08.29457 15 18 26.37 -06 43 10.8    ~691b 20.0 GVNEOCPI52
     C0QYGK2  C2019 06 08.29868 15 18 26.13 -06 43 10.6    ~691b 20.3 GVNEOCPI52
     C0QYGK2  C2019 06 08.30230 15 18 25.97 -06 43 10.5    ~691b 19.6 GVNEOCPI52
     C0QYGK2 KC2019 06 08@jkSK?hj=QJi8t+Eae'J3(cJ(_jrPDC*=yLb=h9g2Q),7(H/r5k[K87
     C0QYGK2 KC2019 06 088p=Q:j[8geVg7^Y1Kkc.RkTLkFb]p%40ooI]4Y$KQb_b3*Ku\%f6K87
     C0QYGK2 KC2019 06 08[AcMAK07*y!nJ7)];.4#GwjR?h(`%=[BDGUmQ.H+VMv_0kHEHov8K87
     C0QYGK2  C2019 06 09.31037 15 17 35.63 -06 43 46.5    ~697q 19.6 GVNEOCPI52
     C0QYGK2  C2019 06 09.31435 15 17 35.46 -06 43 46.3    ~697q 19.8 GVNEOCPI52
     C0QYGK2  C2019 06 09.31833 15 17 35.22 -06 43 46.7    ~697q 19.9 GVNEOCPI52
     C0QYGK2 HC2019 06 11!R2jZrIRSEv/l+Vw9$)pQY/K1;s[7f\ix$pOV#Nfor,2@8Br+FUU691
     C0QYGK2 HC2019 06 11R4en_Pc31ynCQtG!$W$RjMV2y;2Tqh6f(fOox)nFMy@Nx,$+$H2Z691
     C0QYGK2 HC2019 06 1141OFexplanationeF?-\+iI5^!,Gk+A@+@c%^17rEHGFgneN*J-_691
     C0QYGK2  C2019 06 11.35799 15 15 57.95 -06 45 37.3    ~6B97 19.9 GVNEOCPI52
     C0QYGK2  C2019 06 11.36122 15 15 57.82 -06 45 37.8    ~6B97 20.2 GVNEOCPI52
     C0QYGK2  C2019 06 11.36446 15 15 57.67 -06 45 37.5    ~6B97 20.1 GVNEOCPI52
     C0QYGK2  C2019 06 12.23065 15 15 18.64 -06 46 40.6    ~6C6M 20.2 GVNEOCPI52
     C0QYGK2  C2019 06 12.23718 15 15 18.33 -06 46 41.6    ~6C6M       VNEOCPI52
     C0QYGK2  C2019 06 12.24650 15 15 17.91 -06 46 42.2    ~6C6M 21.2 GVNEOCPI52

Station data:
(691) Steward Observatory, Kitt Peak - Spacewatch  (N31.962174 W111.600327)
   US/Arizona.  Observer J. V. Scotti. 0.9-m f/3 reflector + CCD.
(703) Catalina Sky Survey  (N32.417006 W110.732640)  US/Arizona.  Observers
   T. A. Pruyne, B. M. Africano, E. J. Christensen, G. A. Farneth, D. C.
   Fuls, A. R. Gibbs, A. D. Grauer, H. Groeller, J. A. Johnson, R. A.
   Kowalski, S. M. Larson, G. J. Leonard, R. L. Seaman, F. C. Shelly. 0.68 m
   Schmidt + 10K CCD.
(F51) Pan-STARRS 1, Haleakala  (N20.707235 W156.255910)  US/Hawaii.
   Observers N. Primak, A. Schultz, S. Watters, J. Thiel, T. Goggia. Measurer
   PS1 Science Consortium. 1.8-m Ritchey-Chrétien + CCD.
(F52) Pan-STARRS 2, Haleakala  (N20.707384 W156.255910)  US/Hawaii. 1.8-m
   Ritchey-Chrétien + CCD.
(G96) Mt. Lemmon Survey  (N32.442754 W110.788720)  US/Arizona.  Observers T.
   A. Pruyne, B. M. Africano, E. J. Christensen, G. A. Farneth, D. C. Fuls,
   A. R. Gibbs, A. D. Grauer, H. Groeller, J. A. Johnson, R. A. Kowalski, S.
   M. Larson, G. J. Leonard, R. L. Seaman, F. C. Shelly. 1.5-m reflector +
   10K CCD.
(I52) Steward Observatory, Mt. Lemmon Station  (N32.442547 W110.788920)
   US/Arizona.  Observers T. A. Pruyne, B. M. Africano, E. J. Christensen, G.
   A. Farneth, D. C. Fuls, A. R. Gibbs, A. D. Grauer, H. Groeller, J. A.
   Johnson, R. A. Kowalski, S. M. Larson, G. J. Leonard, R. L. Seaman, F. C.
   Shelly. 1.0-m reflector + CCD.
(K87) Dettelbach Vineyard Observatory  (N49.807693 E10.170110)  Germany.

Orbital elements:  C0QYGK2
   Perihelion 2020 Jan 4.572115 +/- 0.00654 TT = 13:43:50 (JD 2458853.072115)
Epoch 2019 Jun 12.0 TT = JDT 2458646.5   Earth MOID: 0.7049   AutoNEOCP
M 302.81097900 +/- 0.0034           (J2000 ecliptic)
n   0.27684772 +/- 1e-5             Peri.  201.66235 +/- 0.0015
a   2.33153571 +/- 5.61e-5          Node   128.02433 +/- 0.0011
e   0.2645843 +/- 3.32e-5           Incl.    6.82854 +/- 0.00008
P   3.56                   H 17.3   G  0.15   U  5.0  
q 1.71464783 +/- 3.94e-5    Q 2.94842358 +/- 0.000147
From 62 observations 2019 Mar. 17-June 12; mean residual 0".34
Residuals in arcseconds: 
190317 G96  .40+  .26-    190528 G96  .00   .13+    190607 I52  .22-  .07+    
190317 G96  .15+  .24-    190528 G96  .01-  .28+    190608 I52  .14-  .21+    
190317 G96  .06+  .38+    190528 G96  .28+  .07-    190608 I52  .27-  .38-    
190317 G96  .42+  .41-    190529 703  .54-  .10-    190608 I52  .60-  .07-    
190402 F51  .29-  .26-    190529 703  1.2+  .15+    190608 I52  .13-  .13+    
190402 F51  .32-  .27-    190529 703  .28+  .67+    190608 K87  .97+  .65-    
190402 F51  .26-  .19-    190530 F52  .01+  .20+    190608 K87  .89+  .81-    
190402 F51  .35-  .26-    190530 F52  .02+  .28+    190608 K87  .95+  .68-    
190425 G96  .22+  .47+    190530 F52  .03+  .31+    190609 I52  .46-  .18-    
190425 G96  .10+  .03-    190530 F52  .05+  .28+    190609 I52  .06+  .17+    
190425 G96  .00   .58+    190606 G96  .20-  .29+    190609 I52  .47-  .07-    
190425 G96  .41-  .08+    190606 G96  .24-  .11+    190611 691  .05+  .12+    
190502 G96  .24-  .02+    190606 G96  .03+  .23+    190611 691  .32-  .54-    
190502 G96  .37-  .20+    190606 G96  .31-  .24+    190611 691  .16-  .20+    
190502 G96  .12+  .22-    190606 I52  .39-  .09-    190611 I52  .64-  .03-    
190502 G96  .28-  .55-    190606 I52  .01-  .08-    190611 I52  .28-  .33-    
190511 F51  .22+  .16+    190606 I52  .06+  .07-    190611 I52  .21-  .18+    
190511 F51  .16+  .16+    190606 I52  .01+  .04+    190612 I52  .23-  .03-    
190511 F51  .12+  .15+    190607 I52  .22-  .16+    190612 I52  .25-  .53-    
190511 F51  .19+  .20+    190607 I52  .17-  .07-    190612 I52  .06+  .41-    
190528 G96  .15+  .48+    190607 I52  .18+  .30+    

Ephemerides (geocentric):
Date (UTC) HH   RA              Dec         delta   r     elong  mag " sig PA
---- -- -- --  -------------   -----------  ------ ------ -----  --- ---- ---
2019 06 15 19  15 12 49.920   -06 52 29.95  1.2287 2.1248 142.2 20.3 .037 162
2019 06 15 20  15 12 48.307   -06 52 35.01  1.2289 2.1247 142.2 20.3 .038 162
2019 06 15 21  15 12 46.696   -06 52 40.08  1.2290 2.1246 142.2 20.3 .038 162
2019 06 15 22  15 12 45.089   -06 52 45.18  1.2292 2.1245 142.1 20.3 .038 162
2019 06 15 23  15 12 43.485   -06 52 50.29  1.2293 2.1243 142.1 20.3 .038 162
2019 06 16 00  15 12 41.884   -06 52 55.43  1.2295 2.1242 142.0 20.3 .038 162
2019 06 16 01  15 12 40.286   -06 53 00.59  1.2296 2.1241 142.0 20.3 .039 161
2019 06 16 02  15 12 38.691   -06 53 05.77  1.2298 2.1239 141.9 20.3 .039 161
2019 06 16 03  15 12 37.099   -06 53 10.97  1.2299 2.1238 141.9 20.3 .039 161
2019 06 16 04  15 12 35.510   -06 53 16.19  1.2301 2.1237 141.8 20.3 .039 161
2019 06 16 05  15 12 33.924   -06 53 21.43  1.2302 2.1236 141.8 20.3 .039 161
